[[{"header":{"parameterUnit":"m.s-1","parameterCategory":1,"la1":30.2991,"la2":30.254,"lo1":-89.0895,"lo2":-89.0444,"dy":0.0017,"dx":0.0017,"nx":28,"ny":28,"refTime":"2023-10-22T03:00:00:Z","depth":0,"parameterNumber":2,"parameterNumberName":"U-component_of_WINDS"},"data":[0,0,0,0,0,0,0,0,0,0,0,0,0,0,0,0,0,0,0,0,0,0,0,0,0,0,0,0,0,0,0,0,0,0,0,0,0,0,0,0,0,0,0,0,0,0,0,0,0,0,0,0,0,0,0,0,0,0,0.292,0.292,0,0.2909,0.2908,0.2908,0.2931,0.2932,0.2932,0.2933,0.2918,0.2917,0.2916,0,0,0,0,0,0,0,0,0,0,0,0,0,0.2962,0.2961,0.292,0.292,0.292,0.2909,0.2908,0.2908,0.2931,0.2932,0.2933,0.2933,0.2919,0.2918,0.2916,0,0,0,0,0,0,0,0,0,0,0,0,0,0.2946,0.2961,0.292,0.293,0.2931,0.2909,0.2908,0.2908,0.2931,0.2932,0.2933,0.2934,0.2919,0.2918,0.2916,0.2883,0,0,0.2911,0.291,0,0,0,0,0,0,0,0,0.2947,0.2945,0.2929,0.2929,0.293,0.2922,0.2918,0.29,0.293,0.2931,0.2933,0.2934,0.2919,0.2917,0.2912,0.2882,0.2882,0.2911,0.291,0.2909,0.2909,0,0,0,0,0,0,0,0.2948,0.2945,0.2916,0.2928,0.2929,0.2935,0.2934,0.2914,0.2918,0.2931,0.2932,0.2931,0.2919,0.2914,0.2912,0.2882,0.2911,0.2909,0.2908,0.2908,0.2827,0.2826,0,0,0,0,0,0,0.2948,0.2946,0.2916,0.2915,0.2942,0.2933,0.2932,0.2924,0.2919,0.2919,0.293,0.2932,0.2916,0.2914,0.2912,0.2875,0.2909,0.2908,0.2907,0.2828,0.2827,0.2826,0,0,0,0,0,0,0.2949,0.2945,0.2916,0.2931,0.2928,0.2931,0.2922,0.2923,0.2918,0.2918,0.2919,0.2924,0.2917,0.2914,0.2891,0.2874,0.2907,0.2905,0.283,0.2828,0.2826,0.2799,0,0,0,0,0,0,0.295,0.2945,0.2933,0.2931,0.2927,0.2896,0.2921,0.2922,0.2915,0.2918,0.2912,0.2913,0.2918,0.2893,0.2889,0.2873,0.2904,0.2831,0.2829,0.2827,0.2802,0.2797,0.2793,0,0,0,0,0,0.2951,0.2924,0.2932,0.2928,0.2911,0.2895,0.2893,0.29,0.2913,0.2901,0.2902,0.2913,0.2877,0.2891,0.2886,0.2869,0.2832,0.283,0.2827,0.2804,0.2798,0.2793,0,0,0,0,0,0,0.2923,0.2924,0.2933,0.2904,0.2899,0.2899,0.2883,0.2893,0.2883,0.2886,0.2894,0.2893,0.2869,0.2867,0.2882,0.2839,0.2857,0.2853,0.2841,0.2835,0.2831,0.2832,0.2903,0,0,0,0,0,0.2913,0.29,0.2902,0.2877,0.2874,0.2879,0.2872,0.2878,0.2873,0.2871,0.287,0.2864,0.2852,0.2843,0.2832,0.2802,0.2802,0.2788,0.2784,0.278,0.2777,0.2763,0.2757,0.2817,0.2817,0.2817,0,0,0.2893,0.2892,0.2883,0.2871,0.2868,0.2854,0.2877,0.2861,0.2851,0.2868,0.2847,0.2846,0.284,0.2814,0.2803,0.2812,0.2761,0.2777,0.2774,0.2772,0.276,0.2754,0.2749,0.2816,0.2816,0.2816,0,0,0.285,0.2847,0.2827,0.2825,0.2821,0.2825,0.282,0.2818,0.2819,0.2798,0.2812,0.28,0.2778,0.2775,0.277,0.2729,0.2739,0.2725,0.2701,0.2687,0.2683,0.2679,0.2665,0.266,0.2721,0.2721,0.2721,0,0.2825,0.2805,0.2815,0.2799,0.2794,0.2811,0.2792,0.2788,0.278,0.2776,0.2787,0.2762,0.2759,0.2734,0.2724,0.2719,0.2715,0.2725,0.2683,0.2679,0.2675,0.2662,0.2657,0.272,0.272,0.272,0.272,0,0.2776,0.2762,0.2746,0.274,0.2734,0.2715,0.2723,0.2715,0.2723,0.2726,0.2706,0.2703,0.2693,0.2688,0.2694,0.2664,0.267,0.2681,0.27,0.2667,0.2656,0.2651,0.2717,0.2718,0.2718,0.2719,0,0,0.2711,0.2714,0.2708,0.2707,0.2705,0.2695,0.2678,0.267,0.2663,0.2658,0.2645,0.2628,0.264,0.2634,0.2641,0.2629,0.2599,0.2642,0.2642,0.2635,0.2567,0.2558,0.2552,0.2606,0.2605,0.2604,0.2568,0,0.2669,0.2642,0.2652,0.2624,0.2613,0.2631,0.2617,0.2614,0.2617,0.2608,0.2611,0.26,0.2615,0.2613,0.2602,0.2604,0.2585,0.2607,0.2594,0.2593,0.2595,0.2546,0.2536,0.2502,0.2563,0.2562,0.2562,0,0.2616,0.2611,0.2582,0.2586,0.2581,0.2568,0.2563,0.2553,0.2552,0.2555,0.2551,0.2561,0.2546,0.2565,0.2545,0.256,0.2556,0.2556,0.2555,0.2554,0.2575,0.2544,0.2491,0.2486,0.2554,0.2555,0.2556,0,0.2574,0.2559,0.2541,0.2539,0.2542,0.2533,0.2534,0.2533,0.2529,0.2524,0.2521,0.2514,0.251,0.2504,0.2513,0.2526,0.2492,0.2511,0.2495,0.2494,0.2486,0.2486,0.2432,0.2483,0.2483,0.2483,0.2483,0,0.2526,0.2508,0.2523,0.2511,0.2492,0.2505,0.2486,0.2488,0.2488,0.2478,0.2493,0.2483,0.2494,0.2486,0.2492,0.2476,0.2473,0.2476,0.2478,0.2475,0.2475,0.2472,0.2475,0.2481,0.2482,0.2482,0.2482,0,0.2475,0.2484,0.2465,0.2471,0.2472,0.2458,0.2462,0.2452,0.2458,0.2445,0.2443,0.2451,0.2442,0.245,0.2441,0.2445,0.2424,0.2429,0.2424,0.2426,0.2409,0.2411,0.2351,0.2344,0.2399,0.2398,0.2398,0,0.2443,0.243,0.2435,0.243,0.2431,0.2422,0.2418,0.243,0.2425,0.2425,0.2415,0.2408,0.2403,0.2388,0.2393,0.2387,0.2392,0.2372,0.2391,0.2389,0.2393,0.2394,0.2393,0.2368,0.2367,0.2366,0.2366,0,0.2388,0.2394,0.2388,0.2384,0.2379,0.2376,0.2375,0.237,0.2383,0.2377,0.2369,0.2365,0.2358,0.235,0.2347,0.2347,0.2359,0.236,0.2356,0.2353,0.2351,0.2353,0.2414,0.2361,0.2362,0.2362,0.2362,0.2362,0.2346,0.2336,0.2339,0.2333,0.2333,0.2332,0.2324,0.233,0.2324,0.2319,0.2327,0.2317,0.2319,0.2315,0.2315,0.2308,0.2316,0.231,0.2309,0.2307,0.2305,0.2353,0.2307,0.2307,0.2307,0.2307,0.2307,0,0.2292,0.2295,0.229,0.2288,0.2284,0.2297,0.2296,0.2292,0.2283,0.2284,0.228,0.2272,0.2266,0.2272,0.2267,0.2261,0.2266,0.2259,0.226,0.226,0.2297,0.2301,0.2255,0.2255,0.2255,0.2255,0.2255,0.2255,0.2263,0.2248,0.2255,0.2241,0.2245,0.2237,0.2236,0.2235,0.2236,0.2227,0.2223,0.2227,0.2231,0.2227,0.2223,0.2225,0.2223,0.2214,0.2218,0.2252,0.2257,0.2262,0.2266,0.2213,0.2213,0.2182,0.2181,0.2181]},{"header":{"parameterUnit":"m.s-1","parameterCategory":1,"la1":30.2991,"la2":30.254,"lo1":-89.0895,"lo2":-89.0444,"dy":0.0017,"dx":0.0017,"nx":28,"ny":28,"refTime":"2023-10-22T03:00:00:Z","depth":0,"parameterNumber":3,"parameterNumberName":"V-component_of_WINDS"},"data":[0,0,0,0,0,0,0,0,0,0,0,0,0,0,0,0,0,0,0,0,0,0,0,0,0,0,0,0,0,0,0,0,0,0,0,0,0,0,0,0,0,0,0,0,0,0,0,0,0,0,0,0,0,0,0,0,0,0,-0.3787,-0.3788,0,-0.3833,-0.3833,-0.3834,-0.3843,-0.3843,-0.3843,-0.3842,-0.3887,-0.3889,-0.389,0,0,0,0,0,0,0,0,0,0,0,0,0,-0.3708,-0.3709,-0.3787,-0.3788,-0.3788,-0.3833,-0.3833,-0.3834,-0.3843,-0.3843,-0.3843,-0.3842,-0.3887,-0.3888,-0.389,0,0,0,0,0,0,0,0,0,0,0,0,0,-0.3747,-0.371,-0.3787,-0.3799,-0.38,-0.3832,-0.3833,-0.3834,-0.3844,-0.3843,-0.3843,-0.3842,-0.3886,-0.3888,-0.3891,-0.3914,0,0,-0.3897,-0.3898,0,0,0,0,0,0,0,0,-0.3745,-0.375,-0.3796,-0.3798,-0.38,-0.3832,-0.3822,-0.3861,-0.3844,-0.3827,-0.3842,-0.3842,-0.3869,-0.3873,-0.3882,-0.3916,-0.3918,-0.3898,-0.3899,-0.39,-0.3901,0,0,0,0,0,0,0,-0.3742,-0.3748,-0.3805,-0.3797,-0.3799,-0.3801,-0.3806,-0.3829,-0.385,-0.3828,-0.3829,-0.3835,-0.387,-0.388,-0.3883,-0.3919,-0.3898,-0.39,-0.3901,-0.3902,-0.3976,-0.3976,0,0,0,0,0,0,-0.3737,-0.3745,-0.3804,-0.3806,-0.377,-0.3803,-0.3808,-0.3822,-0.385,-0.3854,-0.3835,-0.3835,-0.3876,-0.3881,-0.3885,-0.3915,-0.39,-0.3902,-0.3903,-0.3975,-0.3976,-0.3976,0,0,0,0,0,0,-0.3736,-0.3742,-0.3802,-0.3776,-0.3784,-0.3805,-0.382,-0.3823,-0.3833,-0.3855,-0.3859,-0.3842,-0.3876,-0.3882,-0.3907,-0.3917,-0.3903,-0.3905,-0.3974,-0.3975,-0.3976,-0.3975,0,0,0,0,0,0,-0.3733,-0.3742,-0.3751,-0.3776,-0.3785,-0.3824,-0.382,-0.3824,-0.3837,-0.3838,-0.3862,-0.3866,-0.3876,-0.3904,-0.3909,-0.392,-0.3907,-0.3973,-0.3975,-0.3976,-0.3975,-0.3976,-0.3977,0,0,0,0,0,-0.373,-0.3749,-0.3752,-0.3758,-0.3798,-0.3824,-0.3829,-0.3842,-0.3838,-0.3848,-0.3862,-0.3865,-0.3915,-0.3906,-0.3913,-0.3924,-0.3973,-0.3974,-0.3976,-0.3974,-0.3976,-0.3977,0,0,0,0,0,0,-0.3723,-0.3752,-0.3756,-0.3783,-0.3801,-0.3826,-0.3838,-0.3843,-0.3862,-0.3862,-0.3876,-0.3881,-0.3906,-0.3917,-0.3907,-0.3949,-0.3944,-0.3946,-0.394,-0.3942,-0.3944,-0.394,-0.3909,0,0,0,0,0,-0.3725,-0.3744,-0.3768,-0.379,-0.3799,-0.3817,-0.3829,-0.3837,-0.3856,-0.3864,-0.388,-0.3898,-0.3918,-0.3931,-0.395,-0.3976,-0.3982,-0.3987,-0.3989,-0.399,-0.3992,-0.4007,-0.401,-0.3981,-0.3981,-0.3981,0,0,-0.3728,-0.3746,-0.3758,-0.3789,-0.3804,-0.3824,-0.3823,-0.3844,-0.3859,-0.3867,-0.3892,-0.3904,-0.3926,-0.3952,-0.3964,-0.3962,-0.4001,-0.3991,-0.3992,-0.3994,-0.4009,-0.4012,-0.4014,-0.3982,-0.3982,-0.3981,0,0,-0.3744,-0.376,-0.378,-0.3795,-0.3819,-0.3831,-0.3836,-0.386,-0.3869,-0.3894,-0.3901,-0.3919,-0.3953,-0.3968,-0.398,-0.4003,-0.4007,-0.4009,-0.4016,-0.4031,-0.4034,-0.4036,-0.4044,-0.4047,-0.4011,-0.4011,-0.4011,0,-0.3745,-0.3776,-0.3789,-0.381,-0.3824,-0.3833,-0.3853,-0.3868,-0.3896,-0.3905,-0.3902,-0.3946,-0.3961,-0.3991,-0.3997,-0.4006,-0.4012,-0.4006,-0.4032,-0.4034,-0.4037,-0.4045,-0.4048,-0.4011,-0.4011,-0.4011,-0.4011,0,-0.3776,-0.3797,-0.3811,-0.3839,-0.3854,-0.3874,-0.3891,-0.3904,-0.3911,-0.3924,-0.395,-0.3968,-0.3992,-0.4,-0.4006,-0.4031,-0.4029,-0.4029,-0.4025,-0.4039,-0.4048,-0.4051,-0.4011,-0.4011,-0.4011,-0.4011,0,0,-0.3789,-0.3825,-0.3829,-0.3843,-0.3869,-0.3886,-0.3907,-0.3931,-0.3943,-0.3962,-0.398,-0.4009,-0.4009,-0.4023,-0.4031,-0.4044,-0.4062,-0.4043,-0.4044,-0.4046,-0.4092,-0.4092,-0.4095,-0.4065,-0.4066,-0.4066,-0.409,0,-0.3809,-0.3847,-0.386,-0.3892,-0.3912,-0.3921,-0.394,-0.3958,-0.397,-0.3989,-0.4002,-0.4022,-0.4021,-0.403,-0.4043,-0.4057,-0.4072,-0.4056,-0.4082,-0.4083,-0.4077,-0.4099,-0.4099,-0.4121,-0.4093,-0.4094,-0.4094,0,-0.3837,-0.3858,-0.3891,-0.3917,-0.3926,-0.3942,-0.3965,-0.3983,-0.4004,-0.4012,-0.4028,-0.4036,-0.4058,-0.4052,-0.4083,-0.4072,-0.4084,-0.4092,-0.4093,-0.4096,-0.4089,-0.4103,-0.4128,-0.4131,-0.4099,-0.4099,-0.4098,0,-0.3843,-0.3879,-0.3905,-0.3916,-0.3945,-0.3957,-0.397,-0.399,-0.4004,-0.4025,-0.4034,-0.4056,-0.4068,-0.4085,-0.4099,-0.4093,-0.4129,-0.4124,-0.4136,-0.4136,-0.4143,-0.4143,-0.417,-0.415,-0.415,-0.415,-0.415,0,-0.3864,-0.3885,-0.3908,-0.3924,-0.3947,-0.3962,-0.3985,-0.3998,-0.4016,-0.4035,-0.4044,-0.4061,-0.4077,-0.4096,-0.4107,-0.4131,-0.4137,-0.4144,-0.4146,-0.4143,-0.4142,-0.4151,-0.415,-0.4151,-0.4151,-0.4151,-0.4151,0,-0.3875,-0.3892,-0.392,-0.3946,-0.3953,-0.3969,-0.3992,-0.4007,-0.402,-0.4043,-0.4049,-0.4069,-0.4092,-0.4108,-0.4137,-0.4144,-0.4171,-0.4173,-0.4164,-0.4165,-0.4177,-0.4176,-0.4211,-0.4217,-0.4192,-0.4193,-0.4193,0,-0.3887,-0.3904,-0.3932,-0.3945,-0.3958,-0.3979,-0.3994,-0.4009,-0.4024,-0.405,-0.4062,-0.4086,-0.4106,-0.4142,-0.4159,-0.4182,-0.4185,-0.4195,-0.4188,-0.4184,-0.4185,-0.4184,-0.4186,-0.4197,-0.4197,-0.4197,-0.4197,0,-0.3908,-0.3915,-0.3936,-0.396,-0.3978,-0.3997,-0.4017,-0.4027,-0.4046,-0.4062,-0.4086,-0.4101,-0.4132,-0.4155,-0.418,-0.4192,-0.4198,-0.4199,-0.4204,-0.42,-0.4195,-0.4199,-0.4167,-0.4198,-0.4198,-0.4198,-0.4198,-0.4198,-0.392,-0.3935,-0.3958,-0.3981,-0.3998,-0.4016,-0.4032,-0.4047,-0.4068,-0.4094,-0.4102,-0.4127,-0.4149,-0.4182,-0.4195,-0.4215,-0.4214,-0.422,-0.4221,-0.4223,-0.4223,-0.4192,-0.422,-0.422,-0.422,-0.422,-0.422,0,-0.3941,-0.3957,-0.3978,-0.4006,-0.4024,-0.4028,-0.405,-0.4065,-0.4088,-0.4107,-0.4127,-0.4155,-0.4178,-0.4197,-0.4221,-0.4233,-0.4237,-0.4239,-0.4238,-0.4242,-0.4222,-0.4217,-0.4236,-0.4236,-0.4236,-0.4236,-0.4236,-0.4236,-0.3955,-0.3981,-0.3991,-0.4026,-0.4041,-0.4066,-0.4079,-0.4096,-0.4112,-0.4143,-0.4162,-0.4175,-0.4195,-0.422,-0.4242,-0.4247,-0.4255,-0.4257,-0.4263,-0.4245,-0.4243,-0.4241,-0.4236,-0.4259,-0.4259,-0.428,-0.428,-0.4281]}]]